Weather History for Bloomington, IN

Change the Weather History Date:

Sunday, December 15, 2002

  Actual Average Record
Temperature  
Mean Temperature 39 °F 32 °F  
Max Temperature 46 °F 40 °F 61 °F (2011)
Min Temperature 32 °F 24 °F -1 °F (2010)
Degree Days  
Heating Degree Days 26 33  
Month to date heating degree days 463  
Since 1 July heating degree days 1519  
Cooling Degree Days 0 0  
Month to date cooling degree days 0  
Year to date cooling degree days 927  
Moisture  
Dew Point 31 °F    
Average Humidity 75    
Maximum Humidity 96    
Minimum Humidity 56    
Precipitation  
Precipitation 0.00 in 0.09 in 0.72 in (2007)
Month to date precipitation 1.54  
Year to date precipitation 45.55  
Sea Level Pressure  
Sea Level Pressure 29.93 in    
Wind  
Wind Speed 8 mph (SW)    
Max Wind Speed 14 mph    
Max Gust Speed -    
Visibility 6 miles    
Events      
T = Trace of Precipitation, MM = Missing Value Source: NWS Daily Summary

Daily Weather History Graph

Daily Weather History Graph

Search for Another Location

Airport:

Trip Planner

Search our weather history database for the weather conditions in past years. The results will help you decide how hot, cold, wet, or windy it might be!

Date:

Astronomy

Dec. 15, 2002 Rise Set
Actual Time 7:58 AM EST 5:24 PM EST
Civil Twilight 7:28 AM EST 5:54 PM EST
Nautical Twilight 6:54 AM EST 6:28 PM EST
Astronomical Twilight 6:22 AM EST 7:00 PM EST
Moon 3:00 PM EST (12/15) 3:52 AM EST (12/15)
Length of Visible Light 10h 26m
Length of Day
9h 26m
Waxing Gibbous, 85% of the Moon is Illuminated
Dec 15
Waxing Gibbous
Dec 19
Full
Dec 26
Last Quarter
Jan 2
New
Jan 10
First Quarter

Hourly Weather History & Observations

Time (EST) Temp. Windchill Dew Point Humidity Pressure Visibility Wind Dir Wind Speed Gust Speed Precip Events Conditions
12:26 AM 32.0 °F 27.5 °F 30.2 °F 93% 30.00 in 1.2 mi SW 4.6 mph - N/A   Overcast
12:53 AM 32.0 °F 24.2 °F 30.9 °F 96% 30.00 in 1.2 mi SSW 9.2 mph - N/A   Mostly Cloudy
1:00 AM 32.0 °F 24.2 °F 30.2 °F 93% 29.98 in 2.0 mi SSW 9.2 mph - N/A   Scattered Clouds
1:26 AM 32.0 °F 24.2 °F 30.2 °F 93% 29.98 in 1.8 mi SW 9.2 mph - N/A   Partly Cloudy
1:37 AM 33.8 °F 27.0 °F 28.4 °F 81% 29.98 in 2.0 mi SSW 8.1 mph - N/A   Haze
1:53 AM 33.1 °F 26.1 °F 32.0 °F 96% 30.00 in 2.5 mi SSW 8.1 mph - N/A   Clear
2:53 AM 33.1 °F 25.5 °F 30.9 °F 92% 29.99 in 3.0 mi SW 9.2 mph - N/A   Clear
3:53 AM 33.1 °F 26.1 °F 30.9 °F 92% 29.98 in 4.0 mi SW 8.1 mph - N/A   Clear
4:53 AM 34.0 °F 28.0 °F 30.9 °F 89% 29.96 in 5.0 mi SSW 6.9 mph - N/A   Clear
5:53 AM 34.0 °F 28.0 °F 30.9 °F 89% 29.95 in 5.0 mi SSW 6.9 mph - N/A   Clear
6:53 AM 34.0 °F 29.8 °F 30.9 °F 89% 29.96 in 5.0 mi SW 4.6 mph - N/A   Clear
7:53 AM 35.1 °F 28.6 °F 32.0 °F 89% 29.96 in 5.0 mi SW 8.1 mph - N/A   Clear
8:53 AM 36.0 °F 29.0 °F 32.0 °F 86% 29.94 in 4.0 mi SW 9.2 mph - N/A   Clear
9:53 AM 37.0 °F 29.8 °F 32.0 °F 82% 29.94 in 4.0 mi SW 10.4 mph - N/A   Haze
10:53 AM 41.0 °F 33.5 °F 32.0 °F 70% 29.92 in 6.0 mi SW 13.8 mph - N/A   Haze
11:53 AM 43.0 °F 36.0 °F 32.0 °F 65% 29.90 in 8.0 mi SW 13.8 mph - N/A   Clear
12:53 PM 46.0 °F 40.2 °F 32.0 °F 58% 29.88 in 9.0 mi WSW 12.7 mph - N/A   Clear
1:53 PM 46.9 °F - 32.0 °F 56% 29.85 in 9.0 mi WSW 11.5 mph - N/A   Clear
2:53 PM 46.9 °F - 32.0 °F 56% 29.84 in 9.0 mi WSW 11.5 mph - N/A   Clear
3:53 PM 46.9 °F - 32.0 °F 56% 29.84 in 10.0 mi SW 11.5 mph - N/A   Clear
4:53 PM 45.0 °F 40.6 °F 32.0 °F 60% 29.85 in 9.0 mi SW 8.1 mph - N/A   Clear
5:53 PM 44.1 °F 40.1 °F 32.0 °F 63% 29.86 in 9.0 mi WSW 6.9 mph - N/A   Clear
6:53 PM 45.0 °F 40.1 °F 32.0 °F 60% 29.87 in 9.0 mi WSW 9.2 mph - N/A   Clear
7:53 PM 45.0 °F 40.6 °F 30.9 °F 58% 29.89 in 9.0 mi WSW 8.1 mph - N/A   Clear
8:53 PM 45.0 °F 42.6 °F 30.9 °F 58% 29.89 in 9.0 mi West 4.6 mph - N/A   Clear
9:53 PM 44.1 °F 41.5 °F 30.9 °F 60% 29.90 in 9.0 mi West 4.6 mph - N/A   Clear
10:53 PM 44.1 °F 40.8 °F 32.0 °F 63% 29.91 in 8.0 mi West 5.8 mph - N/A   Clear
11:53 PM 44.1 °F 42.5 °F 32.0 °F 63% 29.91 in 8.0 mi Variable 3.5 mph - N/A   Clear